Regional Weather Roundup
Issued by NWS

Home | Current Version | Previous Version | Text Only | Print | Product List | Glossary On
Versions: 1 2 3 4 5 6 7 8 9 10 11 12 13 14 15 16 17 18 19 20 21 22 23 24 25 26 27 28
000
ASUS45 KCYS 210710
RWRWY

WYOMING REGIONAL WEATHER ROUNDUP
NATIONAL WEATHER SERVICE CHEYENNE WY
100 AM MDT THU SEP 21 2017

NOTE:  "FAIR" INDICATES FEW OR NO CLOUDS BELOW 12,000 FEET
WITH NO SIGNIFICANT WEATHER AND/OR OBSTRUCTIONS TO VISIBILITY.

WYZ001-210800-
YELLOWSTONE NATIONAL PARK

CITY           SKY/WX    TMP DP  RH WIND       PRES   REMARKS
LK YELLOWSTONE NOT AVBL
W YELLOWSTONE  NOT AVBL

$$
WYZ002>013-054>058-071-098>099-210800-
NORTHERN WYOMING

CITY           SKY/WX    TMP DP  RH WIND       PRES   REMARKS
JACKSON        CLOUDY    37  36  93 SW5       29.82R WCI  34
CODY           CLOUDY    52  36  54 SW10      29.73S
GREYBULL       CLOUDY    59  38  45 W6        29.69R
WORLAND        MOCLDY    54  40  59 N3        29.67R
SHERIDAN       MOCLDY    62  30  29 W15       29.69R
BUFFALO        MOCLDY    54  29  38 SE5       29.70F
GILLETTE       CLOUDY    57  34  41 S12       29.68F
HULETT         FAIR      59  32  36 SE6       29.71F
NEWCASTLE      FAIR      61  30  31 SE18G25   29.74F

$$
WYZ014>020-022>026-101>103-210800-
CENTRAL WYOMING

CITY           SKY/WX    TMP DP  RH WIND       PRES   REMARKS
BIG PINEY      FAIR      42  36  79 NE10      29.76F
PINEDALE       PTSUNNY   39  36  87 W6        29.76F WCI  35
DUBOIS         LGT RAIN  36  34  93 W9        29.77F WCI  29
LANDER           N/A    N/A N/A N/A MISG      29.70F
RIVERTON       MOCLDY    49  38  65 NW6       29.70F
CASPER         FAIR      46  35  65 SE5       29.70F
DOUGLAS        FAIR      55  31  39 SE14      29.73F

$$
WYZ021-027>030-104>119-210800-
SOUTHERN WYOMING

CITY           SKY/WX    TMP DP  RH WIND       PRES   REMARKS
EVANSTON       FAIR      45  37  73 NW9       29.74F
KEMMERER         N/A     43  34  70 N8        29.75S
FORT BRIDGER   FAIR      45  33  65 CALM      29.77S
ROCK SPRINGS   FAIR      56  32  40 S16       29.72F
DIXON          FAIR      63  26  25 S14G21    29.83F
RAWLINS        FAIR      48  35  60 S7        29.79F
SARATOGA       FAIR      57  30  35 S16G24    29.83F
LARAMIE        FAIR      49  28  44 S9        29.87F
CHEYENNE       FAIR      52  31  44 S12       29.86F
TORRINGTON     FAIR      54  34  46 E15       29.76F
PINE BLUFFS    FAIR      55  32  41 SE18      29.83F

$$




USA.gov is the U.S. government's official web portal to all federal, state and local government web resources and services.